Location: Sungai Dangang
(2.7500°N, 113.8333°E)
Time: 04:36:47
(UTC+00:00)

BLOCK DM-SL R/B - Pass Details

Date: 16 May 2021
Orbit: 300 x 32507 km, 2.9° (Epoch: 16 June)

Event Time Altitude Azimuth Distance (km) Brightness Sun altitude
Rises 11:33:52 0° 270° (W) 14,072 10.3 -16.2°
Reaches altitude 10° 11:44:35 10° 269° (W) 15,600 10.2 -18.7°
Drops below altitude 10° 17:48:36 10° 266° (W) 31,060 10.3 -59.2°
Enters shadow 19:25:59 12° 265° (W) 15,986 8.7 -39.5°
Exits shadow 20:05:08 46° 256° (WSW) 3,354 5.2 -30.7°
Maximum altitude 20:10:01 76° 182° (S) 1,676 4.0 -29.6°
Sets 20:16:14 0° 94° (E) 2,882 6.4 -28.2°
